Weather Roundup
Issued by NWS Springfield, MO

Home | Current Version | Previous Version | Text Only | Print | Product List | Glossary On
Versions: 1 2 3 4 5 6 7 8 9 10 11 12 13 14 15 16 17 18 19 20 21 22 23 24 25 26 27 28 29 30 31 32 33 34 35 36 37 38 39 40 41 42 43 44 45 46 47 48 49 50
000
NZUS99 KSGF 210007
HRRSGF

HOURLY WEATHER
NATIONAL WEATHER SERVICE SPRINGFIELD MO
700 PM CDT MON APR 20 2015

......SGF CWA......

CITY           SKY/WX    TMP DP  RH WIND       PRES   REMARKS
SPRINGFIELD    PTCLDY    56  25  30 W13G23    29.89R
6HR MIN TEMP:  55; 6HR MAX TEMP:  59;

JOPLIN         MOSUNNY   57  33  40 NW13      29.92R
6HR MIN TEMP:  55; 6HR MAX TEMP:  60;

WEST PLAINS    PTCLDY    56  27  32 NW12G20   29.87R
6HR MIN TEMP:  56; 6HR MAX TEMP:  62;

ROLLA          PTCLDY    53  27  36 W12       29.81S
6HR MIN TEMP:  52; 6HR MAX TEMP:  58;

OSAGE BEACH    CLEAR     57  21  24 W10G20    29.84R
BRANSON        PTCLDY    55  27  33 NW14      29.91R

......SURROUNDING SGF CWA......

CITY           SKY/WX    TMP DP  RH WIND       PRES   REMARKS
CHANUTE        PTSUNNY   58  32  37 NW10      29.90S
PARSONS        MOSUNNY   59  36  42 NW7       29.92S
COFFEYVILLE    SUNNY     60  34  37 NW7       29.91F
EMPORIA        PTSUNNY   59  27  29 NW9       29.87S
GROVE OK       MOSUNNY   61  34  36 NW6       29.94S
ROGERS AR      PTCLDY    56  30  37 W13G24    29.94R
SILOAM SPRINGS SUNNY     57  34  41 NW8       29.95S
HARRISON AR    CLEAR     56  28  34 NW13G22   29.91R
NEAR YELLVILLE CLEAR     59 N/A N/A W16G22    29.88R

......KANSAS AND MISSOURI......

CITY           SKY/WX    TMP DP  RH WIND       PRES   REMARKS
KANSAS CTY INT MOSUNNY   56  25  30 W16G25    29.83S
DOWNTOWN KC    SUNNY     58  24  27 W10G18    29.83S
COLUMBIA       PTCLDY    55  26  32 W16G25    29.81R
SEDALIA        PTCLDY    55  28  35 NW9       29.85R
ST JOSEPH      PTSUNNY   57  24  28 NW16      29.81R
ST LOUIS       MOCLDY    56  31  38 W12       29.79R
SPIRIT OF STL  MOCLDY    55  30  38 W9G25     29.79R
KIRKSVILLE     MOCLDY    53  26  35 W12G25    29.75F
WICHITA        MOSUNNY   61  31  32 NW9       29.90S
TOPEKA         CLOUDY    58  26  29 NW8       29.85S
OLATHE         PTSUNNY   56  24  29 NW12G21   29.84S

......TENNESSEE......

CITY           SKY/WX    TMP DP  RH WIND       PRES   REMARKS
MEMPHIS        PTCLDY    64  34  32 W13       29.85S
NASHVILLE      PTCLDY    60  42  51 W9        29.79R

......ARKANSAS.......

CITY           SKY/WX    TMP DP  RH WIND       PRES   REMARKS
FAYETTEVILLE   CLEAR     56  33  42 NW8       29.93S
FT SMITH       SUNNY     64  29  26 W15       29.92S
LITTLE ROCK    CLEAR     67  30  25 W12       29.88R

......OKLAHOMA.......

CITY           SKY/WX    TMP DP  RH WIND       PRES   REMARKS
TULSA          MOSUNNY   63  34  33 W8        29.93S
PONCA CITY     MOSUNNY   63  31  30 W8        29.93S
MCALESTER      MOSUNNY   66  31  27 NW10      29.96R
OKLAHOMA CITY  MOSUNNY   64  29  26 CALM      29.95F

......IOWA............

CITY           SKY/WX    TMP DP  RH WIND       PRES   REMARKS
DES MOINES     MOSUNNY   55  11  17 NW22G33   29.68S
QUAD CITIES    MOCLDY    48  33  56 W14       29.65R

......ILLINOIS........

CITY           SKY/WX    TMP DP  RH WIND       PRES   REMARKS
QUINCY         MOCLDY    52  27  38 W15G31    29.75R
CHICAGO        CLOUDY    46  31  55 W20G33    29.57R



USA.gov is the U.S. government's official web portal to all federal, state and local government web resources and services.